Location: Melizzano
(41.1500°N, 14.5000°E)
Time: 09:26:00
(UTC+00:00)

Cosmos 1709 Rocket - Pass Details

Date: 04 October 2021
Orbit: 948 x 1002 km, 82.9° (Epoch: 27 October)

Event Time Altitude Azimuth Distance (km) Brightness Sun altitude
Rises 16:55:17 0° 220° (SW) 3,640 7.7 -3.9°
Reaches altitude 10° 16:58:15 10° 233° (SW) 2,690 7.3 -4.5°
Maximum altitude 17:03:15 26° 288° (WNW) 1,798 6.5 -5.4°
Drops below altitude 10° 17:08:15 10° 343° (NNW) 2,683 6.5 -6.4°
Sets 17:11:13 0° 357° (N) 3,629 7.0 -6.9°
